Main page
METAR-TAF:

METAR-TAF

Airports :

Southern Illinois Airport

Carbondale / Murphysboro, Illinois, United States

latitude: 37-46-59N, longitude: 089-14-42W, elevation: 410 ft

Current weather observation

The report was made 31 minutes ago, at 00:52 UTC
Wind 6 mph from the Southeast
Temperature 84°F
Humidity 62%
Pressure 29.91 in. Hg
Visibility: 10 miles
Clear sky

METAR: KMDH 250052Z 13005KT 10SM CLR 29/21 A2991 RMK AO2 SLP123 T02890206

Time: 20:23 (01:23 UTC)


TAF: missing

Weather observations and forecasts of more than 4000 airports (METAR and TAF reports).

The available stations are represented by yellow and red dots on the map.

Hover mouse over dot to see the name of the station.

Then click to see weather observations and forecasts.

To change the map : click on the green buttons with a black cross to zoom in, on the green button with a dash to zoom out, or on the green arrows for adjacent maps.


METAR-TAF: